カタログに戻る

USA 435

運用中軍事VLEO
NORAD 61658·PAYLOAD·🇺🇸 United States

打ち上げ Oct 24, 2024 から Vandenberg Space Force Base

Loading…

次のパス (今後24時間)

TLE

古いSource: Mike McCants

元期: Aug 10, 2026, 20:00 UTC

1 61658U 24192Q   26222.83363339 0.00000000  00000-0  00000-0 0    09
2 61658  70.0172 114.9541 0003000 347.9661  12.0338 14.96713501    03

AllMySatでUSA 435をリアルタイム追跡

Download on the App Store